| time (UTC) | temp F | wind direction | speed MPH | gust MPH | rain 1hr in | rain 24hr in | rain mn in | humidity % | barometer mb |
| 20260504002227 | 63 | 282 | 5.0 | 13.0 | 0.00 | 0.00 | 0.00 | 68 | 1012.1 |
| 20260504001450 | 64 | 260 | 4.0 | 10.0 | 0.00 | 0.00 | 0.00 | 68 | 1012.0 |
| 20260504000728 | 64 | 304 | 5.0 | 12.0 | 0.00 | 0.00 | 0.00 | 68 | 1012.0 |
| 20260504000226 | 64 | 297 | 4.0 | 12.0 | 0.00 | 0.00 | 0.00 | 67 | 1011.9 |
| 20260503235727 | 64 | 276 | 3.0 | 9.0 | 0.00 | 0.00 | 0.00 | 67 | 1011.9 |
| 20260503235227 | 64 | 323 | 8.0 | 9.0 | 0.00 | 0.00 | 0.00 | 66 | 1011.7 |
| 20260503234227 | 65 | 256 | 4.0 | 13.0 | 0.00 | 0.00 | 0.00 | 64 | 1011.9 |
| 20260503233726 | 65 | 302 | 4.0 | 10.0 | 0.00 | 0.00 | 0.00 | 64 | 1011.6 |
| 20260503233227 | 65 | 315 | 5.0 | 10.0 | 0.00 | 0.00 | 0.00 | 64 | 1011.5 |
| 20260503232727 | 65 | 262 | 4.0 | 12.0 | 0.00 | 0.00 | 0.00 | 63 | 1011.5 |
| 20260503232225 | 65 | 257 | 4.0 | 12.0 | 0.00 | 0.00 | 0.00 | 62 | 1011.7 |
| 20260503231725 | 66 | 306 | 4.0 | 10.0 | 0.00 | 0.00 | 0.00 | 61 | 1011.6 |
| 20260503231227 | 66 | 300 | 7.0 | 10.0 | 0.00 | 0.00 | 0.00 | 61 | 1011.6 |
| 20260503230726 | 66 | 296 | 6.0 | 10.0 | 0.00 | 0.00 | 0.00 | 61 | 1011.8 |
| 20260503230225 | 66 | 273 | 2.0 | 13.0 | 0.00 | 0.00 | 0.00 | 61 | 1011.8 |
| 20260503225726 | 66 | 338 | 9.0 | 13.0 | 0.00 | 0.00 | 0.00 | 61 | 1011.7 |
| 20260503225226 | 66 | 267 | 5.0 | 10.0 | 0.00 | 0.00 | 0.00 | 59 | 1011.9 |
| 20260503224948 | 66 | 325 | 6.0 | 12.0 | 0.00 | 0.00 | 0.00 | 61 | 1012.0 |
| 20260503224225 | 66 | 254 | 2.0 | 12.0 | 0.00 | 0.00 | 0.00 | 59 | 1012.0 |
| 20260503223726 | 66 | 262 | 2.0 | 8.0 | 0.00 | 0.00 | 0.00 | 58 | 1012.0 |
| 20260503223224 | 66 | 354 | 5.0 | 9.0 | 0.00 | 0.00 | 0.00 | 58 | 1012.0 |
| 20260503222725 | 66 | 291 | 4.0 | 15.0 | 0.00 | 0.00 | 0.00 | 58 | 1011.9 |
| 20260503222225 | 66 | 325 | 6.0 | 15.0 | 0.00 | 0.00 | 0.00 | 59 | 1011.9 |
| 20260503221725 | 66 | 349 | 7.0 | 10.0 | 0.00 | 0.00 | 0.00 | 59 | 1012.0 |
| 20260503221224 | 66 | 270 | 4.0 | 9.0 | 0.00 | 0.00 | 0.00 | 60 | 1012.1 |
| 20260503220725 | 66 | 351 | 6.0 | 10.0 | 0.00 | 0.00 | 0.00 | 60 | 1012.0 |
| 20260503220225 | 66 | 273 | 4.0 | 13.0 | 0.00 | 0.00 | 0.00 | 58 | 1012.1 |
| 20260503215724 | 66 | 291 | 5.0 | 14.0 | 0.00 | 0.00 | 0.00 | 58 | 1012.1 |
| 20260503215224 | 66 | 282 | 6.0 | 14.0 | 0.00 | 0.00 | 0.00 | 58 | 1012.3 |
| 20260503214724 | 66 | 327 | 9.0 | 10.0 | 0.00 | 0.00 | 0.00 | 58 | 1012.4 |
| 20260503214225 | 66 | 281 | 4.0 | 9.0 | 0.00 | 0.00 | 0.00 | 58 | 1012.4 |
| 20260503213723 | 66 | 340 | 5.0 | 10.0 | 0.00 | 0.00 | 0.00 | 60 | 1012.4 |
| 20260503213444 | 66 | 285 | 4.0 | 12.0 | 0.00 | 0.00 | 0.00 | 60 | 1012.4 |
| 20260503212724 | 66 | 334 | 3.0 | 12.0 | 0.00 | 0.00 | 0.00 | 58 | 1012.4 |
| 20260503212448 | 65 | 285 | 3.0 | 14.0 | 0.00 | 0.00 | 0.00 | 58 | 1012.4 |
| 20260503211723 | 65 | 263 | 4.0 | 14.0 | 0.00 | 0.00 | 0.00 | 60 | 1012.5 |
| 20260503211223 | 65 | 296 | 7.0 | 12.0 | 0.00 | 0.00 | 0.00 | 59 | 1012.6 |
| 20260503210724 | 65 | 286 | 3.0 | 12.0 | 0.00 | 0.00 | 0.00 | 61 | 1012.6 |
| 20260503210224 | 65 | 240 | 2.0 | 13.0 | 0.00 | 0.00 | 0.00 | 62 | 1012.6 |
| 20260503205940 | 65 | 334 | 3.0 | 13.0 | 0.00 | 0.00 | 0.00 | 62 | 1012.6 |
| 20260503205222 | 65 | 291 | 5.0 | 12.0 | 0.00 | 0.00 | 0.00 | 62 | 1012.7 |
| 20260503204941 | 65 | 319 | 6.0 | 12.0 | 0.00 | 0.00 | 0.00 | 63 | 1012.6 |
| 20260503204448 | 65 | 351 | 4.0 | 12.0 | 0.00 | 0.00 | 0.00 | 65 | 1012.6 |
| 20260503203722 | 65 | 291 | 8.0 | 13.0 | 0.00 | 0.00 | 0.00 | 62 | 1012.5 |
| 20260503203448 | 66 | 255 | 6.0 | 16.0 | 0.00 | 0.00 | 0.00 | 63 | 1012.6 |
| 20260503202723 | 66 | 325 | 5.0 | 16.0 | 0.00 | 0.00 | 0.00 | 63 | 1012.6 |
| 20260503202222 | 66 | 326 | 12.0 | 15.0 | 0.00 | 0.00 | 0.00 | 63 | 1012.6 |
| 20260503201721 | 66 | 304 | 4.0 | 13.0 | 0.00 | 0.00 | 0.00 | 64 | 1012.6 |
| 20260503201221 | 66 | 260 | 4.0 | 13.0 | 0.00 | 0.00 | 0.00 | 63 | 1012.7 |
| 20260503200947 | 66 | 329 | 5.0 | 13.0 | 0.00 | 0.00 | 0.00 | 62 | 1012.7 |
| 20260503200224 | 66 | 358 | 4.0 | 12.0 | 0.00 | 0.00 | 0.00 | 63 | 1012.7 |
| 20260503195723 | 65 | 277 | 5.0 | 14.0 | 0.00 | 0.00 | 0.00 | 64 | 1012.9 |
| 20260503195221 | 65 | 346 | 2.0 | 14.0 | 0.00 | 0.00 | 0.00 | 66 | 1012.9 |
| 20260503194721 | 65 | 343 | 7.0 | 12.0 | 0.00 | 0.00 | 0.00 | 68 | 1012.9 |
| 20260503194222 | 65 | 273 | 5.0 | 16.0 | 0.00 | 0.00 | 0.00 | 67 | 1012.9 |
| 20260503193946 | 64 | 241 | 6.0 | 16.0 | 0.00 | 0.00 | 0.00 | 69 | 1013.0 |
| 20260503193221 | 65 | 315 | 10.0 | 13.0 | 0.00 | 0.00 | 0.00 | 68 | 1012.9 |
| 20260503192945 | 64 | 346 | 4.0 | 14.0 | 0.00 | 0.00 | 0.00 | 69 | 1013.0 |
| 20260503192221 | 65 | 333 | 10.0 | 15.0 | 0.00 | 0.00 | 0.00 | 68 | 1013.1 |
| 20260503191721 | 65 | 343 | 9.0 | 15.0 | 0.00 | 0.00 | 0.00 | 70 | 1013.0 |
| 20260503191220 | 65 | 284 | 6.0 | 15.0 | 0.00 | 0.00 | 0.00 | 69 | 1013.0 |
| 20260503190720 | 65 | 359 | 9.0 | 17.0 | 0.00 | 0.00 | 0.00 | 68 | 1012.9 |
| 20260503190221 | 65 | 275 | 7.0 | 17.0 | 0.00 | 0.00 | 0.00 | 68 | 1012.9 |
| 20260503185720 | 65 | 296 | 4.0 | 13.0 | 0.00 | 0.00 | 0.00 | 69 | 1012.9 |
| 20260503185220 | 65 | 334 | 4.0 | 13.0 | 0.00 | 0.00 | 0.00 | 68 | 1012.9 |
| 20260503184721 | 65 | 246 | 5.0 | 10.0 | 0.00 | 0.00 | 0.00 | 68 | 1012.9 |
| 20260503184448 | 65 | 318 | 5.0 | 13.0 | 0.00 | 0.00 | 0.00 | 68 | 1012.9 |
| 20260503183944 | 65 | 313 | 6.0 | 13.0 | 0.00 | 0.00 | 0.00 | 68 | 1013.0 |
| 20260503183219 | 65 | 347 | 8.0 | 15.0 | 0.00 | 0.00 | 0.00 | 68 | 1013.0 |
| 20260503182937 | 65 | 337 | 8.0 | 15.0 | 0.00 | 0.00 | 0.00 | 69 | 1012.9 |
| 20260503182220 | 66 | 354 | 4.0 | 14.0 | 0.00 | 0.00 | 0.00 | 68 | 1013.0 |
| 20260503181946 | 66 | 345 | 5.0 | 12.0 | 0.00 | 0.00 | 0.00 | 67 | 1012.9 |
| 20260503181219 | 66 | 336 | 5.0 | 12.0 | 0.00 | 0.00 | 0.00 | 68 | 1012.9 |
| 20260503180718 | 66 | 337 | 9.0 | 10.0 | 0.00 | 0.00 | 0.00 | 68 | 1012.9 |
| 20260503180440 | 66 | 224 | 2.0 | 9.0 | 0.00 | 0.00 | 0.00 | 68 | 1012.8 |
| 20260503175720 | 66 | 261 | 2.0 | 9.0 | 0.00 | 0.00 | 0.00 | 67 | 1012.9 |
| 20260503175218 | 67 | 337 | 3.0 | 7.0 | 0.00 | 0.00 | 0.00 | 68 | 1012.9 |
| 20260503174719 | 66 | 332 | 4.0 | 7.0 | 0.00 | 0.00 | 0.00 | 67 | 1012.8 |
| 20260503174218 | 66 | 246 | 4.0 | 7.0 | 0.00 | 0.00 | 0.00 | 66 | 1012.9 |
| 20260503173720 | 66 | 271 | 1.0 | 5.0 | 0.00 | 0.00 | 0.00 | 66 | 1012.9 |
| 20260503173219 | 66 | 270 | 1.0 | 7.0 | 0.00 | 0.00 | 0.00 | 68 | 1012.9 |
| 20260503172719 | 65 | 261 | 0.0 | 8.0 | 0.00 | 0.00 | 0.00 | 67 | 1012.9 |
| 20260503172218 | 65 | 327 | 6.0 | 9.0 | 0.00 | 0.00 | 0.00 | 68 | 1012.9 |
| 20260503171720 | 65 | 260 | 3.0 | 9.0 | 0.00 | 0.00 | 0.00 | 70 | 1012.8 |
| 20260503171217 | 64 | 343 | 4.0 | 9.0 | 0.00 | 0.00 | 0.00 | 71 | 1012.8 |
| 20260503170717 | 64 | 350 | 6.0 | 9.0 | 0.00 | 0.00 | 0.00 | 71 | 1012.9 |
| 20260503170217 | 64 | 247 | 2.0 | 7.0 | 0.00 | 0.00 | 0.00 | 71 | 1012.9 |
| 20260503160215 | 64 | 289 | 1.0 | 6.0 | 0.00 | 0.00 | 0.00 | 71 | 1012.6 |
| 20260503150715 | 61 | 333 | 4.0 | 8.0 | 0.00 | 0.00 | 0.00 | 75 | 1012.6 |
| 20260503150215 | 61 | 2 | 6.0 | 8.0 | 0.00 | 0.00 | 0.00 | 75 | 1012.7 |
| 20260503140215 | 60 | 321 | 4.0 | 8.0 | 0.00 | 0.00 | 0.00 | 79 | 1012.3 |
| 20260503131214 | 60 | 292 | 5.0 | 9.0 | 0.00 | 0.00 | 0.00 | 80 | 1011.7 |
| 20260503130937 | 60 | 1 | 7.0 | 9.0 | 0.00 | 0.00 | 0.00 | 80 | 1011.6 |
| 20260503130212 | 60 | 285 | 5.0 | 9.0 | 0.00 | 0.00 | 0.00 | 81 | 1011.5 |
| 20260503120211 | 60 | 345 | 5.0 | 9.0 | 0.00 | 0.00 | 0.00 | 82 | 1011.1 |
| 20260503110711 | 60 | 338 | 7.0 | 10.0 | 0.00 | 0.00 | 0.00 | 84 | 1011.0 |
| 20260503110212 | 60 | 329 | 5.0 | 10.0 | 0.00 | 0.00 | 0.00 | 84 | 1011.0 |
| 20260503090350 | 61 | 285 | 7.0 | 8.0 | 0.00 | 0.00 | 0.00 | 83 | 1011.2 |
| 20260503081350 | 61 | 235 | 0.0 | 1.0 | 0.00 | 0.00 | 0.00 | 84 | 1012.0 |
| 20260503080850 | 61 | 250 | 0.0 | 1.0 | 0.00 | 0.00 | 0.00 | 84 | 1012.1 |
| 20260503080350 | 61 | 264 | 0.0 | 0.0 | 0.00 | 0.00 | 0.00 | 84 | 1012.0 |
| 20260503072850 | 60 | 246 | 0.0 | 1.0 | 0.00 | 0.00 | 0.00 | 85 | 1012.3 |
| 20260503072348 | 60 | 240 | 0.0 | 2.0 | 0.00 | 0.00 | 0.00 | 85 | 1012.3 |
| 20260503071850 | 60 | 267 | 1.0 | 3.0 | 0.00 | 0.00 | 0.00 | 85 | 1012.5 |
| 20260503071350 | 60 | 273 | 2.0 | 3.0 | 0.00 | 0.00 | 0.00 | 85 | 1012.5 |
| 20260503070850 | 60 | 249 | 0.0 | 2.0 | 0.00 | 0.00 | 0.00 | 85 | 1012.4 |
| 20260503070347 | 60 | 247 | 1.0 | 2.0 | 0.00 | 0.00 | 0.00 | 85 | 1012.4 |
| 20260503054849 | 60 | 242 | 1.0 | 5.0 | 0.00 | 0.00 | 0.00 | 87 | 1012.3 |
| 20260503054347 | 59 | 259 | 0.0 | 5.0 | 0.00 | 0.00 | 0.00 | 87 | 1012.3 |
| 20260503053847 | 59 | 255 | 1.0 | 5.0 | 0.00 | 0.00 | 0.00 | 87 | 1012.5 |
| 20260503053346 | 59 | 293 | 1.0 | 5.0 | 0.00 | 0.00 | 0.00 | 87 | 1012.4 |
| 20260503052847 | 59 | 277 | 2.0 | 6.0 | 0.00 | 0.00 | 0.00 | 87 | 1012.3 |
| 20260503052348 | 59 | 263 | 1.0 | 7.0 | 0.00 | 0.00 | 0.00 | 87 | 1012.2 |
| 20260503051845 | 59 | 260 | 1.0 | 8.0 | 0.00 | 0.00 | 0.00 | 87 | 1012.2 |
| 20260503051346 | 59 | 334 | 5.0 | 8.0 | 0.00 | 0.00 | 0.00 | 87 | 1012.2 |
| 20260503051111 | 59 | 277 | 2.0 | 7.0 | 0.00 | 0.00 | 0.00 | 87 | 1012.1 |
| 20260503050346 | 59 | 300 | 4.0 | 7.0 | 0.00 | 0.00 | 0.00 | 87 | 1012.0 |
| 20260503045845 | 59 | 307 | 2.0 | 7.0 | 0.00 | 0.00 | 0.00 | 87 | 1011.8 |
| 20260503045346 | 59 | 250 | 1.0 | 7.0 | 0.00 | 0.00 | 0.00 | 87 | 1011.6 |
| 20260503044846 | 59 | 272 | 2.0 | 8.0 | 0.00 | 0.00 | 0.00 | 87 | 1011.5 |
| 20260503044346 | 59 | 293 | 3.0 | 8.0 | 0.00 | 0.00 | 0.00 | 87 | 1011.4 |
| 20260503043844 | 59 | 270 | 2.0 | 7.0 | 0.00 | 0.00 | 0.00 | 87 | 1011.3 |
| 20260503043603 | 59 | 262 | 1.0 | 7.0 | 0.00 | 0.00 | 0.00 | 87 | 1011.3 |
| 20260503042845 | 59 | 299 | 4.0 | 7.0 | 0.00 | 0.00 | 0.00 | 87 | 1011.1 |
| 20260503042346 | 59 | 259 | 2.0 | 6.0 | 0.00 | 0.00 | 0.00 | 87 | 1011.1 |
| 20260503041844 | 59 | 297 | 2.0 | 6.0 | 0.00 | 0.00 | 0.00 | 87 | 1011.1 |
| 20260503041344 | 59 | 286 | 2.0 | 6.0 | 0.00 | 0.00 | 0.00 | 86 | 1011.1 |
| 20260503041112 | 60 | 302 | 5.0 | 8.0 | 0.00 | 0.00 | 0.00 | 86 | 1010.9 |
| 20260503040611 | 60 | 278 | 5.0 | 8.0 | 0.00 | 0.00 | 0.00 | 86 | 1010.8 |
| 20260503040106 | 60 | 285 | 4.0 | 7.0 | 0.00 | 0.00 | 0.00 | 86 | 1010.7 |
| 20260503035344 | 60 | 325 | 6.0 | 7.0 | 0.00 | 0.00 | 0.00 | 86 | 1010.5 |
| 20260503035108 | 60 | 325 | 4.0 | 7.0 | 0.00 | 0.00 | 0.00 | 86 | 1010.3 |
| 20260503034345 | 60 | 309 | 4.0 | 8.0 | 0.00 | 0.00 | 0.00 | 86 | 1010.4 |
| 20260503034107 | 60 | 14 | 6.0 | 8.0 | 0.00 | 0.00 | 0.00 | 86 | 1010.3 |
| 20260503033600 | 60 | 325 | 5.0 | 8.0 | 0.00 | 0.00 | 0.00 | 86 | 1010.3 |
| 20260503032843 | 60 | 320 | 7.0 | 8.0 | 0.00 | 0.00 | 0.00 | 86 | 1010.3 |
| 20260503032345 | 60 | 351 | 4.0 | 9.0 | 0.00 | 0.00 | 0.00 | 85 | 1010.2 |
| 20260503031843 | 60 | 327 | 5.0 | 12.0 | 0.00 | 0.00 | 0.00 | 85 | 1010.1 |
| 20260503031343 | 60 | 348 | 9.0 | 12.0 | 0.00 | 0.00 | 0.00 | 85 | 1009.9 |
| 20260503030842 | 60 | 277 | 7.0 | 10.0 | 0.00 | 0.00 | 0.00 | 85 | 1009.8 |
| 20260503030344 | 60 | 339 | 5.0 | 12.0 | 0.00 | 0.00 | 0.00 | 85 | 1009.8 |
| 20260503025844 | 60 | 308 | 7.0 | 12.0 | 0.00 | 0.00 | 0.00 | 85 | 1009.9 |
| 20260503025342 | 60 | 335 | 9.0 | 10.0 | 0.00 | 0.00 | 0.00 | 85 | 1009.8 |
| 20260503024842 | 60 | 330 | 6.0 | 10.0 | 0.00 | 0.00 | 0.00 | 86 | 1009.8 |
| 20260503024343 | 60 | 277 | 5.0 | 8.0 | 0.00 | 0.00 | 0.00 | 86 | 1010.0 |
| 20260503023842 | 60 | 6 | 2.0 | 10.0 | 0.00 | 0.00 | 0.00 | 86 | 1010.0 |
| 20260503023343 | 60 | 258 | 5.0 | 10.0 | 0.00 | 0.00 | 0.00 | 85 | 1009.9 |
| 20260503023104 | 61 | 316 | 2.0 | 6.0 | 0.00 | 0.00 | 0.00 | 85 | 1009.9 |
| 20260503022344 | 61 | 262 | 2.0 | 9.0 | 0.00 | 0.00 | 0.00 | 85 | 1009.9 |
| 20260503022105 | 61 | 211 | 1.0 | 9.0 | 0.00 | 0.00 | 0.00 | 85 | 1010.0 |
| 20260503021341 | 61 | 277 | 4.0 | 9.0 | 0.00 | 0.00 | 0.00 | 85 | 1010.0 |
| 20260503020841 | 61 | 294 | 7.0 | 9.0 | 0.00 | 0.00 | 0.00 | 85 | 1009.8 |
| 20260503020343 | 62 | 291 | 5.0 | 9.0 | 0.00 | 0.00 | 0.00 | 84 | 1010.0 |
| 20260503015842 | 62 | 300 | 4.0 | 13.0 | 0.00 | 0.00 | 0.00 | 84 | 1009.9 |
| 20260503015340 | 62 | 340 | 8.0 | 13.0 | 0.00 | 0.00 | 0.00 | 83 | 1009.9 |
| 20260503014841 | 62 | 289 | 4.0 | 9.0 | 0.00 | 0.00 | 0.00 | 83 | 1009.9 |
| 20260503013841 | 62 | 311 | 4.0 | 9.0 | 0.00 | 0.00 | 0.00 | 83 | 1009.8 |
| 20260503013340 | 62 | 317 | 4.0 | 9.0 | 0.00 | 0.00 | 0.00 | 83 | 1009.7 |
| 20260503012840 | 63 | 339 | 5.0 | 9.0 | 0.00 | 0.00 | 0.00 | 83 | 1009.7 |
| 20260503012343 | 63 | 260 | 3.0 | 9.0 | 0.00 | 0.00 | 0.00 | 82 | 1009.9 |
| 20260503011842 | 63 | 286 | 2.0 | 10.0 | 0.00 | 0.00 | 0.00 | 81 | 1009.8 |
| 20260503011340 | 63 | 267 | 6.0 | 10.0 | 0.00 | 0.00 | 0.00 | 81 | 1009.8 |
| 20260503010840 | 63 | 304 | 4.0 | 9.0 | 0.00 | 0.00 | 0.00 | 81 | 1009.7 |
| 20260503010341 | 63 | 296 | 4.0 | 9.0 | 0.00 | 0.00 | 0.00 | 81 | 1009.5 |
| 20260503005841 | 63 | 329 | 4.0 | 9.0 | 0.00 | 0.00 | 0.00 | 80 | 1009.6 |
| 20260503005339 | 64 | 278 | 2.0 | 9.0 | 0.00 | 0.00 | 0.00 | 81 | 1009.7 |
| 20260503005100 | 64 | 259 | 4.0 | 9.0 | 0.00 | 0.00 | 0.00 | 80 | 1009.8 |
| 20260503004340 | 64 | 258 | 5.0 | 9.0 | 0.00 | 0.00 | 0.00 | 80 | 1009.7 |
| 20260503003841 | 64 | 271 | 5.0 | 10.0 | 0.00 | 0.00 | 0.00 | 79 | 1009.8 |
| 20260503003339 | 64 | 291 | 4.0 | 10.0 | 0.00 | 0.00 | 0.00 | 80 | 1009.8 |
| 20260503003058 | 65 | 250 | 1.0 | 13.0 | 0.00 | 0.00 | 0.00 | 79 | 1009.9 |